Darstellungsparameter: Aktuell verwendete Einstellungen:
Skalierung der Graphiken ... ?
xyx+y,   Skalierungsfaktor:      Skalierung: Modus: x, Faktor: 1
Darstellungszeitraum ... ?
Vom - - bis: - -   Zeitraum: 21.09.2021 - 21.09.2021
Min/Max/Avg-Anzeige ... ?
Zeige MMA aktuell
Zeige MMA Monat
Zeige MMA alles
Zeige --A aktuell
Zeige --A Monat
Zeige --A alles
Keine MMA-Anzeige
MMA:
Average (ber die Originaldaten)
MMA-Basis: 21.09.2021 - 21.09.2021
Quicknavigation für Darstellung... ?
Tage:      1T, 2T, 3T, 5T -1T -2T -3T -5T +1T +2T +3T +5T
Wochen: 1W, 2W, 3W -1W -2W -3W +1W +2W +3W
Monate: 1M, 3M, 6M -1M -3M -6M +1M +3M +6M
Jahre:    1J, 3J, 5J, 10J -1J -3J -5J -10J +1J +3J +5J +10J
Nutze für die Darstellung ... ?
Originaldaten oder Mittelwerte auf ...
Stundenbasis Tagesbasis Wochenbasis
Monatsbasis Jahresbasis      Datenbasis: Original-Daten
Darstellen als:
Statistik (Auto) Statistik J:M      Darstellung:

Der gewünschte Datumsbereich war nicht gültig/verfügbar und wurde korrigiert....
Das angegebene Enddatum (23.04.2023 23:59:59) liegt in der Zukunft.
Das angegebene Startdatum (24.01.2023 00:00:00) liegt in der Zukunft.


Zur Graphik,    zurück zur Übersicht aller Sensoren.
 
Tabellarische Datenbersicht: ?
 
Sensor: Nr:Datum:Temp:Abs-Feuchte:Windchill:Wind:
Aussen-T/F 1 21-09-2021 02:00:00 12 C 8.95 g/m*3 12 C 0 km/h
2 21-09-2021 02:05:00 11.9 C 8.79 g/m*3 11.9 C 0 km/h
3 21-09-2021 02:10:00 11.9 C 8.79 g/m*3 11.9 C 0 km/h
4 21-09-2021 02:15:00 11.8 C 8.74 g/m*3 11.8 C 0 km/h
5 21-09-2021 02:20:00 11.8 C 8.42 g/m*3 11.8 C 4.8 km/h
6 21-09-2021 02:25:00 11.8 C 8.21 g/m*3 11.8 C 6.4 km/h
7 21-09-2021 02:30:00 11.9 C 8.37 g/m*3 11.9 C 0 km/h
8 21-09-2021 02:35:00 12.1 C 8.26 g/m*3 12.1 C 0 km/h
9 21-09-2021 02:40:00 12.2 C 8.63 g/m*3 12.2 C 0 km/h
10 21-09-2021 02:45:00 12.2 C 8.31 g/m*3 12.2 C 0 km/h
11 21-09-2021 02:50:00 12.2 C 8.09 g/m*3 12.2 C 1.6 km/h
12 21-09-2021 02:55:00 12.3 C 8.14 g/m*3 12.3 C 6.4 km/h
13 21-09-2021 03:00:00 12.3 C 8.04 g/m*3 12.3 C 0 km/h
14 21-09-2021 03:05:00 12.4 C 8.09 g/m*3 12.4 C 0 km/h
15 21-09-2021 03:10:00 12.4 C 8.09 g/m*3 12.4 C 0 km/h
16 21-09-2021 03:15:00 12.6 C 8.52 g/m*3 12.6 C 0 km/h
17 21-09-2021 03:20:00 12.6 C 8.63 g/m*3 12.6 C 0 km/h
18 21-09-2021 03:25:00 12.6 C 8.63 g/m*3 12.6 C 0 km/h
19 21-09-2021 03:30:00 12.5 C 8.58 g/m*3 12.5 C 0 km/h
20 21-09-2021 03:35:00 12.3 C 8.47 g/m*3 12.3 C 0 km/h
21 21-09-2021 03:40:00 12.2 C 8.52 g/m*3 12.2 C 0 km/h
22 21-09-2021 03:45:00 12.1 C 8.47 g/m*3 12.1 C 0 km/h
23 21-09-2021 03:50:00 12.1 C 8.69 g/m*3 12.1 C 0 km/h
24 21-09-2021 03:55:00 12 C 8.63 g/m*3 12 C 0 km/h
25 21-09-2021 04:00:00 11.9 C 8.58 g/m*3 11.9 C 0 km/h
Sensor: Nr:Datum:Temp:Abs-Feuchte:Windchill:Wind:
Aussen-T/F 26 21-09-2021 04:05:00 11.8 C 8.53 g/m*3 11.8 C 0 km/h
27 21-09-2021 04:10:00 11.7 C 8.47 g/m*3 11.7 C 0 km/h
28 21-09-2021 04:15:00 11.7 C 8.58 g/m*3 11.7 C 0 km/h
29 21-09-2021 04:20:00 11.6 C 8.42 g/m*3 11.6 C 0 km/h
30 21-09-2021 04:25:00 11.6 C 8.42 g/m*3 11.6 C 0 km/h
31 21-09-2021 04:30:00 11.6 C 8.52 g/m*3 11.6 C 0 km/h
32 21-09-2021 04:35:00 11.6 C 8.63 g/m*3 11.6 C 0 km/h
33 21-09-2021 04:40:00 11.5 C 8.57 g/m*3 11.5 C 0 km/h
34 21-09-2021 04:45:00 11.5 C 8.57 g/m*3 11.5 C 0 km/h
35 21-09-2021 04:50:00 11.4 C 8.52 g/m*3 11.4 C 0 km/h
36 21-09-2021 04:55:00 11.4 C 8.42 g/m*3 11.4 C 0 km/h
37 21-09-2021 05:00:00 11.3 C 8.36 g/m*3 11.3 C 0 km/h
38 21-09-2021 05:05:00 11.3 C 8.36 g/m*3 11.3 C 0 km/h
39 21-09-2021 05:10:00 11.2 C 8.31 g/m*3 11.2 C 0 km/h
40 21-09-2021 05:15:00 11.2 C 8.31 g/m*3 11.2 C 0 km/h
41 21-09-2021 05:20:00 11.2 C 8.31 g/m*3 11.2 C 0 km/h
42 21-09-2021 05:25:00 11.1 C 8.36 g/m*3 11.1 C 0 km/h
43 21-09-2021 05:30:00 11.1 C 8.36 g/m*3 11.1 C 0 km/h
44 21-09-2021 05:35:00 11 C 8.31 g/m*3 11 C 0 km/h
45 21-09-2021 05:40:00 11 C 8.41 g/m*3 11 C 0 km/h
46 21-09-2021 05:45:00 10.9 C 8.36 g/m*3 10.9 C 0 km/h
47 21-09-2021 05:50:00 10.8 C 8.3 g/m*3 10.8 C 0 km/h
48 21-09-2021 05:55:00 10.7 C 8.25 g/m*3 10.7 C 0 km/h
49 21-09-2021 06:00:00 10.6 C 8.1 g/m*3 10.6 C 0 km/h
50 21-09-2021 06:05:00 10.4 C 8 g/m*3 10.4 C 0 km/h
Sensor: Nr:Datum:Temp:Abs-Feuchte:Windchill:Wind:
Aussen-T/F 51 21-09-2021 06:10:00 10.3 C 7.95 g/m*3 10.3 C 0 km/h
52 21-09-2021 06:15:00 10.1 C 7.94 g/m*3 10.1 C 0 km/h
53 21-09-2021 06:20:00 10 C 7.89 g/m*3 10 C 0 km/h
54 21-09-2021 06:25:00 9.9 C 7.94 g/m*3 9.9 C 0 km/h
55 21-09-2021 06:30:00 9.8 C 7.89 g/m*3 9.8 C 0 km/h
56 21-09-2021 06:35:00 9.7 C 7.84 g/m*3 9.7 C 0 km/h
57 21-09-2021 06:40:00 9.6 C 7.79 g/m*3 9.6 C 0 km/h
58 21-09-2021 06:45:00 9.6 C 7.88 g/m*3 9.6 C 0 km/h
59 21-09-2021 06:50:00 9.4 C 7.78 g/m*3 9.4 C 0 km/h
60 21-09-2021 06:55:00 9.4 C 7.87 g/m*3 9.4 C 0 km/h
61 21-09-2021 07:00:00 9.4 C 7.87 g/m*3 9.4 C 0 km/h
62 21-09-2021 07:05:00 9.3 C 7.82 g/m*3 9.3 C 0 km/h
63 21-09-2021 07:10:00 9.3 C 7.91 g/m*3 9.3 C 0 km/h
64 21-09-2021 07:15:00 9.2 C 7.86 g/m*3 9.2 C 0 km/h
65 21-09-2021 07:20:00 9.1 C 7.81 g/m*3 9.1 C 0 km/h
66 21-09-2021 07:25:00 9 C 7.76 g/m*3 9 C 0 km/h
67 21-09-2021 07:30:00 8.8 C 7.66 g/m*3 8.8 C 0 km/h
68 21-09-2021 07:35:00 8.8 C 7.75 g/m*3 8.8 C 0 km/h
69 21-09-2021 07:40:00 8.7 C 7.7 g/m*3 8.7 C 0 km/h
70 21-09-2021 07:45:00 8.6 C 7.65 g/m*3 8.6 C 0 km/h
71 21-09-2021 07:50:00 8.6 C 7.65 g/m*3 8.6 C 0 km/h
72 21-09-2021 07:55:00 8.5 C 7.68 g/m*3 8.5 C 0 km/h
73 21-09-2021 08:00:00 8.4 C 7.63 g/m*3 8.4 C 0 km/h
74 21-09-2021 08:05:00 8.4 C 7.63 g/m*3 8.4 C 0 km/h
75 21-09-2021 08:10:00 8.4 C 7.72 g/m*3 8.4 C 0 km/h
Sensor: Nr:Datum:Temp:Abs-Feuchte:Windchill:Wind:
Aussen-T/F 76 21-09-2021 08:15:00 8.4 C 7.72 g/m*3 8.4 C 0 km/h
77 21-09-2021 08:20:00 8.4 C 7.72 g/m*3 8.4 C 0 km/h
78 21-09-2021 08:25:00 8.4 C 7.72 g/m*3 8.4 C 0 km/h
79 21-09-2021 08:30:00 8.4 C 7.72 g/m*3 8.4 C 0 km/h
80 21-09-2021 08:35:00 8.4 C 7.72 g/m*3 8.4 C 0 km/h
81 21-09-2021 08:40:00 8.4 C 7.72 g/m*3 8.4 C 0 km/h
82 21-09-2021 08:45:00 8.4 C 7.72 g/m*3 8.4 C 0 km/h
83 21-09-2021 08:50:00 8.4 C 7.72 g/m*3 8.4 C 0 km/h
84 21-09-2021 08:55:00 8.4 C 7.72 g/m*3 8.4 C 0 km/h
85 21-09-2021 09:00:00 8.4 C 7.72 g/m*3 8.4 C 0 km/h
86 21-09-2021 09:05:00 8.4 C 7.72 g/m*3 8.4 C 0 km/h
87 21-09-2021 09:10:00 8.4 C 7.72 g/m*3 8.4 C 0 km/h
88 21-09-2021 09:15:00 8.4 C 7.72 g/m*3 8.4 C 0 km/h
89 21-09-2021 09:20:00 8.4 C 7.72 g/m*3 8.4 C 0 km/h
90 21-09-2021 09:25:00 8.4 C 7.72 g/m*3 8.4 C 0 km/h
91 21-09-2021 09:30:00 8.4 C 7.72 g/m*3 8.4 C 0 km/h
92 21-09-2021 09:35:00 8.4 C 7.72 g/m*3 8.4 C 0 km/h
93 21-09-2021 09:40:00 8.4 C 7.72 g/m*3 8.4 C 0 km/h
94 21-09-2021 09:45:00 8.4 C 7.72 g/m*3 8.4 C 0 km/h
95 21-09-2021 09:50:00 8.4 C 7.72 g/m*3 8.4 C 0 km/h
96 21-09-2021 09:55:00 8.5 C 7.85 g/m*3 8.5 C 0 km/h
97 21-09-2021 10:00:00 8.6 C 7.91 g/m*3 8.6 C 0 km/h
98 21-09-2021 10:05:00 8.7 C 7.96 g/m*3 8.7 C 0 km/h
99 21-09-2021 10:10:00 8.8 C 8.01 g/m*3 8.8 C 0 km/h
100 21-09-2021 10:15:00 8.9 C 8.06 g/m*3 8.9 C 0 km/h
Sensor: Nr:Datum:Temp:Abs-Feuchte:Windchill:Wind:
Aussen-T/F 101 21-09-2021 10:20:00 9 C 8.11 g/m*3 9 C 0 km/h
102 21-09-2021 10:25:00 9.1 C 8.16 g/m*3 9.1 C 0 km/h
103 21-09-2021 10:30:00 9.2 C 8.3 g/m*3 9.2 C 0 km/h
104 21-09-2021 10:35:00 9.4 C 8.41 g/m*3 9.4 C 0 km/h
105 21-09-2021 10:40:00 9.5 C 8.47 g/m*3 9.5 C 0 km/h
106 21-09-2021 10:45:00 9.7 C 8.57 g/m*3 9.7 C 0 km/h
107 21-09-2021 10:50:00 9.8 C 8.63 g/m*3 9.8 C 0 km/h
108 21-09-2021 10:55:00 9.9 C 8.68 g/m*3 9.9 C 0 km/h
109 21-09-2021 11:00:00 10.1 C 8.7 g/m*3 10.1 C 0 km/h
110 21-09-2021 11:05:00 10.3 C 8.81 g/m*3 10.3 C 0 km/h
111 21-09-2021 11:10:00 10.4 C 8.87 g/m*3 10.4 C 0 km/h
112 21-09-2021 11:15:00 10.6 C 8.88 g/m*3 10.6 C 0 km/h
113 21-09-2021 11:20:00 10.7 C 8.94 g/m*3 10.7 C 0 km/h
114 21-09-2021 11:25:00 10.8 C 8.9 g/m*3 10.8 C 0 km/h
115 21-09-2021 11:30:00 11.1 C 8.96 g/m*3 11.1 C 0 km/h
116 21-09-2021 11:35:00 11.1 C 8.86 g/m*3 11.1 C 0 km/h
117 21-09-2021 11:40:00 11.3 C 8.98 g/m*3 11.3 C 0 km/h
118 21-09-2021 11:45:00 11.6 C 9.25 g/m*3 11.6 C 0 km/h
119 21-09-2021 11:50:00 11.7 C 9.2 g/m*3 11.7 C 0 km/h
120 21-09-2021 11:55:00 11.8 C 9.16 g/m*3 11.8 C 0 km/h
121 21-09-2021 12:00:00 12.1 C 9.22 g/m*3 12.1 C 0 km/h
122 21-09-2021 12:05:00 12.3 C 9.45 g/m*3 12.3 C 0 km/h
123 21-09-2021 12:10:00 12.6 C 9.07 g/m*3 12.6 C 0 km/h
124 21-09-2021 12:15:00 13 C 8.73 g/m*3 13 C 0 km/h
125 21-09-2021 12:20:00 13.7 C 8.88 g/m*3 13.7 C 0 km/h
Sensor: Nr:Datum:Temp:Abs-Feuchte:Windchill:Wind:
Aussen-T/F 126 21-09-2021 12:25:00 14.2 C 9.16 g/m*3 14.2 C 0 km/h
127 21-09-2021 12:30:00 14.4 C 8.41 g/m*3 14.4 C 0 km/h
128 21-09-2021 12:35:00 14.7 C 8.81 g/m*3 14.7 C 0 km/h
129 21-09-2021 12:40:00 14.8 C 8.74 g/m*3 14.8 C 0 km/h
130 21-09-2021 12:45:00 14.9 C 8.41 g/m*3 14.9 C 0 km/h
131 21-09-2021 12:50:00 15 C 8.21 g/m*3 15 C 1.6 km/h
132 21-09-2021 12:55:00 15.2 C 8.18 g/m*3 15.2 C 11.3 km/h
133 21-09-2021 13:00:00 15.3 C 8.23 g/m*3 15.3 C 1.6 km/h
134 21-09-2021 13:05:00 15.4 C 8.67 g/m*3 15.4 C 3.2 km/h
135 21-09-2021 13:10:00 15.6 C 8.38 g/m*3 15.6 C 4.8 km/h
136 21-09-2021 13:15:00 15.8 C 8.35 g/m*3 15.8 C 9.7 km/h
137 21-09-2021 13:20:00 15.9 C 8.53 g/m*3 15.9 C 6.4 km/h
138 21-09-2021 13:25:00 16.1 C 8.36 g/m*3 16.1 C 9.7 km/h
139 21-09-2021 13:30:00 16.1 C 8.64 g/m*3 16.1 C 9.7 km/h
140 21-09-2021 13:35:00 16.1 C 8.5 g/m*3 16.1 C 3.2 km/h
141 21-09-2021 13:40:00 16.1 C 8.5 g/m*3 16.1 C 4.8 km/h
142 21-09-2021 13:45:00 16.1 C 8.64 g/m*3 16.1 C 4.8 km/h
143 21-09-2021 13:50:00 16.3 C 8.46 g/m*3 16.3 C 9.7 km/h
144 21-09-2021 13:55:00 16.4 C 8.23 g/m*3 16.4 C 11.3 km/h
145 21-09-2021 14:00:00 16.6 C 8.48 g/m*3 16.6 C 9.7 km/h
146 21-09-2021 14:05:00 16.6 C 8.48 g/m*3 16.6 C 12.9 km/h
147 21-09-2021 14:10:00 16.5 C 8.28 g/m*3 16.5 C 11.3 km/h
148 21-09-2021 14:15:00 16.4 C 8.51 g/m*3 16.4 C 6.4 km/h
149 21-09-2021 14:20:00 16.4 C 8.51 g/m*3 16.4 C 6.4 km/h
150 21-09-2021 14:25:00 16.6 C 8.76 g/m*3 16.6 C 4.8 km/h
Sensor: Nr:Datum:Temp:Abs-Feuchte:Windchill:Wind:
Aussen-T/F 151 21-09-2021 14:30:00 16.7 C 8.53 g/m*3 16.7 C 6.4 km/h
152 21-09-2021 14:35:00 16.8 C 8.44 g/m*3 16.8 C 9.7 km/h
153 21-09-2021 14:40:00 16.8 C 8.72 g/m*3 16.8 C 3.2 km/h
154 21-09-2021 14:45:00 16.8 C 8.44 g/m*3 16.8 C 8.1 km/h
155 21-09-2021 14:50:00 16.8 C 8.58 g/m*3 16.8 C 3.2 km/h
156 21-09-2021 14:55:00 16.8 C 8.86 g/m*3 16.8 C 0 km/h
157 21-09-2021 15:00:00 16.9 C 8.77 g/m*3 16.9 C 3.2 km/h
158 21-09-2021 15:05:00 16.8 C 8.58 g/m*3 16.8 C 11.3 km/h
159 21-09-2021 15:10:00 16.6 C 8.62 g/m*3 16.6 C 6.4 km/h
160 21-09-2021 15:15:00 16.6 C 8.9 g/m*3 16.6 C 6.4 km/h
161 21-09-2021 15:20:00 16.6 C 8.76 g/m*3 16.6 C 6.4 km/h
162 21-09-2021 15:25:00 16.6 C 9.04 g/m*3 16.6 C 6.4 km/h
163 21-09-2021 15:30:00 16.5 C 8.71 g/m*3 16.5 C 8.1 km/h
164 21-09-2021 15:35:00 16.5 C 8.43 g/m*3 16.5 C 6.4 km/h
165 21-09-2021 15:40:00 16.5 C 8.85 g/m*3 16.5 C 3.2 km/h
166 21-09-2021 15:45:00 16.6 C 8.9 g/m*3 16.6 C 0 km/h
167 21-09-2021 15:50:00 16.7 C 8.67 g/m*3 16.7 C 0 km/h
168 21-09-2021 15:55:00 16.8 C 8.58 g/m*3 16.8 C 0 km/h
169 21-09-2021 16:00:00 16.8 C 8.58 g/m*3 16.8 C 8.1 km/h
170 21-09-2021 16:05:00 16.9 C 8.63 g/m*3 16.9 C 9.7 km/h
171 21-09-2021 16:10:00 16.8 C 8.58 g/m*3 16.8 C 9.7 km/h
172 21-09-2021 16:15:00 16.7 C 8.38 g/m*3 16.7 C 9.7 km/h
173 21-09-2021 16:20:00 16.6 C 8.48 g/m*3 16.6 C 8.1 km/h
174 21-09-2021 16:25:00 16.6 C 8.48 g/m*3 16.6 C 6.4 km/h
175 21-09-2021 16:30:00 16.7 C 8.53 g/m*3 16.7 C 8.1 km/h
Sensor: Nr:Datum:Temp:Abs-Feuchte:Windchill:Wind:
Aussen-T/F 176 21-09-2021 16:35:00 16.8 C 8.72 g/m*3 16.8 C 4.8 km/h
177 21-09-2021 16:40:00 16.9 C 8.49 g/m*3 16.9 C 8.1 km/h
178 21-09-2021 16:45:00 17 C 8.68 g/m*3 17 C 4.8 km/h
179 21-09-2021 16:50:00 17.1 C 8.44 g/m*3 17.1 C 6.4 km/h
180 21-09-2021 16:55:00 17.1 C 8.44 g/m*3 17.1 C 8.1 km/h
181 21-09-2021 17:00:00 17.2 C 8.49 g/m*3 17.2 C 4.8 km/h
182 21-09-2021 17:05:00 17.2 C 8.49 g/m*3 17.2 C 6.4 km/h
183 21-09-2021 17:10:00 17.2 C 8.49 g/m*3 17.2 C 4.8 km/h
184 21-09-2021 17:15:00 17.2 C 8.64 g/m*3 17.2 C 4.8 km/h
185 21-09-2021 17:20:00 17.2 C 8.49 g/m*3 17.2 C 6.4 km/h
186 21-09-2021 17:25:00 17.2 C 8.64 g/m*3 17.2 C 1.6 km/h
187 21-09-2021 17:30:00 17.3 C 9.58 g/m*3 17.3 C 0 km/h
188 21-09-2021 17:35:00 17.3 C 10.31 g/m*3 17.3 C 0 km/h

Legende:
   Min
   Max


Maximal/Minimal-Werte vom 21.09.2021 - 21.09.2021

Sensor Min Max Avg
Temp
(Aussen-T/F)
8.4 °C
21-09-2021  08:00:00
17.3 °C
21-09-2021  17:30:00
12.4 °C
Abs-Feuchte
(Aussen-T/F)
7.63 g/m*3
21-09-2021  08:00:00
10.31 g/m*3
21-09-2021  17:35:00
8.32 g/m*3
Windchill
(Aussen-T/F)
8.4 C
21-09-2021  08:00:00
17.3 C
21-09-2021  17:30:00
12.34 C

Die Daten stammen von einer Davis Vantage Pro 2 Wetter-Station und werden unter Linux mit der Software wview2wettercgi und aufbereitet. Alle Angaben erfolgen ohne Gewähr für ihre Vollständigkeit oder Richtigkeit.
Kontakt: Rainer Krienke krienke@uni-koblenz.de . Meine Webseiten an der Uni Koblenz oder privat.
Version: $Revision: 0.78 $